Content
SEND FEEDBACK

Daily
Averages
Monthly
Summary
United States of America

DURANGO, COLORADO


Home > North America > United States > Colorado
Elevation: 6685 feet     Latitude: 37 09N     Longitude: 107 45W

WEATHER
 
SELECT A DAY
Number of Records: 182,919;   Date Range: 1/1/95 - 7/29/14
 
SHARE

PRINT THIS DATA

[ ← Previous Day ]
WEATHER ALMANAC - APRIL 21, 2013
[ Next Day → ]
[ °C ]   °F
Weather ElementAverageHighLow
Temperature46.3 °F64 °F (4:53 pm)23 °F (6:53 am)
Dewpoint16.3 °F24.1 °F (9:53 am)7 °F (5:53 pm)
Humidity37 %78 % (6:53 am)11 % (2:53 pm)
Barometer30.05 in30.16 in (6:53 am)29.97 in (3:53 pm)
Wind Speed8.3 mph21.9 mph (6:53 pm)
Wind Gust29.9 mph (2:53 pm)
Weather ElementAverage
Visibility10 mi
Wind DirectionSSE (158.3 °)

Weather ElementTotal
Precipitation---
Heating Degree Days21.5 (Base 65)
Averaged from 23 records on April 21, 2013
WEATHER CONDITIONS BREAKOUT
WIND DIRECTION BREAKOUT
WEATHER BY HOUR - APRIL 21, 2013
[ °C ]   °F
Local TimeTemperatureDewpointHumidityBarometerVisibilityWind DirectionWind SpeedGust SpeedPrecipitationEventsConditions
1:53 AM37.0 °F23.0 °F57 %30.04 in10.0 miWest (260°)5.8 mphClear
2:53 AM34.0 °F21.9 °F61 %30.05 in10.0 miCalmClear
3:53 AM32.0 °F21.0 °F64 %30.06 in10.0 miNorth (350°)4.6 mphClear
4:53 AM28.9 °F19.9 °F69 %30.08 in10.0 miCalmClear
5:53 AM25.0 °F18.0 °F75 %30.12 in10.0 miEast (90°)5.8 mphClear
6:53 AM23.0 °F17.1 °F78 %30.16 in10.0 miENE (60°)4.6 mphClear
7:53 AM32.0 °F21.0 °F64 %30.15 in10.0 miEast (90°)3.5 mphClear
8:53 AM39.9 °F21.9 °F49 %30.15 in10.0 miESE (110°)4.6 mphClear
9:53 AM46.9 °F24.1 °F41 %30.12 in10.0 miENE (60°)5.8 mphClear
10:53 AM50.0 °F21.0 °F32 %30.12 in10.0 miWest (270°)5.8 mphClear
11:53 AM54.0 °F18.0 °F24 %30.09 in10.0 miVariable4.6 mphClear
12:53 PM57.9 °F19.0 °F22 %30.04 in10.0 miSSW (200°)11.5 mph23.0 mphClear
1:53 PM62.1 °F12.9 °F15 %30.00 in10.0 miSSW (210°)18.4 mph28.8 mphClear
2:53 PM63.0 °F8.1 °F11 %29.98 in10.0 miWest (260°)18.4 mph29.9 mphClear
3:53 PM63.0 °F8.1 °F11 %29.97 in10.0 miWest (270°)18.4 mph29.9 mphClear
4:53 PM64.0 °F10.9 °F13 %29.97 in10.0 miWSW (250°)13.8 mph21.9 mphClear
5:53 PM61.0 °F7.0 °F12 %30.01 in10.0 miWSW (240°)15.0 mph25.3 mphClear
6:53 PM59.0 °F12.0 °F16 %30.04 in10.0 miWest (280°)21.9 mph29.9 mphClear
7:53 PM55.0 °F14.0 °F20 %30.02 in10.0 miWest (270°)17.3 mphClear
8:53 PM52.0 °F12.9 °F21 %30.01 in10.0 miNW (320°)6.9 mphClear
9:53 PM45.0 °F12.0 °F26 %30.02 in10.0 miCalmScattered Clouds
10:53 PM41.0 °F14.0 °F33 %30.02 in10.0 miNE (50°)4.6 mphMostly Cloudy
11:53 PM39.9 °F16.0 °F38 %29.99 in10.0 miCalmMostly Cloudy
Hourly data recorded from KDRO, located miles away from Durango, Colorado







STORIES FROM OUR PARTNERS